Weather History for KLTS - December, 2013

Change the Weather History Date:

Saturday, December 7, 2013

  Actual Average Record
Temperature  
Mean Temperature 11 °F -  
Max Temperature 18 °F 53 °F 69 °F (2008)
Min Temperature 4 °F 30 °F 4 °F (2013)
Degree Days  
Heating Degree Days 54    
Moisture  
Dew Point 5 °F    
Average Humidity 68    
Maximum Humidity 74    
Minimum Humidity 63    
Precipitation  
Precipitation 0.00 in - - ()
Sea Level Pressure  
Sea Level Pressure 30.48 in    
Wind  
Wind Speed 9 mph (NNE)    
Max Wind Speed 15 mph    
Max Gust Speed -    
Visibility 10 miles    
Events      
Averages and records for this station are not official NWS values.
T = Trace of Precipitation, MM = Missing Value Source: NWS Daily Summary

Daily Weather History Graph

Daily Weather History Graph

Search for Another Location

Airport or City:

Trip Planner

Search our weather history database for the weather conditions in past years. The results will help you decide how hot, cold, wet, or windy it might be!

Date:

Astronomy

Dec. 07, 2013 Rise Set
Actual Time 7:31 AM CST 5:26 PM CST
Civil Twilight 7:03 AM CST 5:53 PM CST
Nautical Twilight 6:32 AM CST 6:25 PM CST
Astronomical Twilight 6:01 AM CST 6:55 PM CST
Moon 11:25 AM CST (12/7) 10:59 PM CST (12/7)
Length of Visible Light 10h 50m
Length of Day
9h 54m
Waxing Crescent, 29% of the Moon is Illuminated
Dec 7
Waxing Crescent
Dec 9
First Quarter
Dec 17
Full
Dec 25
Last Quarter
Jan 1
New

Hourly Weather History & Observations

Time (CST) Temp. Windchill Dew Point Humidity Pressure Visibility Wind Dir Wind Speed Gust Speed Precip Events Conditions
12:58 AM 4.5 °F -7.6 °F -2.2 °F 74% 30.64 in 10.0 mi NNE 6.9 mph - N/A   Clear
1:58 AM 7.2 °F -6.4 °F -0.9 °F 69% 30.63 in 10.0 mi NNE 9.2 mph - N/A   Clear
2:58 AM 9.3 °F -6.1 °F -0.4 °F 65% 30.62 in 10.0 mi NNE 12.7 mph - N/A   Clear
3:58 AM 8.8 °F -5.3 °F -0.8 °F 65% 30.62 in 10.0 mi NNE 10.4 mph - N/A   Clear
4:58 AM 6.4 °F -6.3 °F -2.0 °F 68% 30.62 in 10.0 mi NNE 8.1 mph - N/A   Clear
5:58 AM 6.3 °F -8.4 °F -2.2 °F 68% 30.64 in 10.0 mi North 10.4 mph - N/A   Clear
6:58 AM 4.6 °F -4.5 °F -2.7 °F 72% 30.66 in 10.0 mi NNE 4.6 mph - N/A   Clear
7:58 AM 6.8 °F -3.5 °F -1.8 °F 68% 30.68 in 10.0 mi North 5.8 mph - N/A   Clear
8:58 AM 7.5 °F -5.0 °F -0.0 °F 71% 30.69 in 10.0 mi North 8.1 mph - N/A   Mostly Cloudy
9:58 AM 10.6 °F -5.8 °F 1.2 °F 66% 30.65 in 10.0 mi NNE 15.0 mph - N/A   Overcast
10:58 AM 12.4 °F -3.5 °F 3.0 °F 66% 30.62 in 10.0 mi NNE 15.0 mph - N/A   Overcast
11:58 AM 14.2 °F -0.6 °F 3.6 °F 63% 30.59 in 10.0 mi NNE 13.8 mph - N/A   Mostly Cloudy
12:58 PM 14.9 °F 4.0 °F 5.2 °F 65% 30.56 in 10.0 mi NNE 8.1 mph - N/A   Overcast
1:38 PM 15.8 °F 6.1 °F 6.8 °F 68% 30.45 in 10.0 mi NNE 6.9 mph - N/A   Overcast
1:58 PM 15.3 °F 3.5 °F 5.5 °F 65% 30.52 in 10.0 mi North 9.2 mph - N/A   Overcast
2:22 PM 15.8 °F 4.2 °F 6.8 °F 68% 30.41 in 10.0 mi NNE 9.2 mph - N/A   Overcast
2:32 PM 15.8 °F 3.4 °F 6.8 °F 68% 30.40 in 10.0 mi NNE 10.4 mph - N/A   Overcast
2:58 PM 16.2 °F 3.9 °F 6.4 °F 66% 30.45 in 10.0 mi NNE 10.4 mph - 0.00 in   Overcast
3:28 PM 15.8 °F 3.4 °F 6.8 °F 68% 30.37 in 10.0 mi NNE 10.4 mph - N/A   Overcast
3:58 PM 16.7 °F 4.5 °F 5.9 °F 63% 30.44 in 10.0 mi NNE 10.4 mph - N/A   Overcast
4:18 PM 17.6 °F 5.7 °F 6.8 °F 63% 30.36 in 10.0 mi NNE 10.4 mph - N/A   Overcast
4:58 PM 17.2 °F 5.2 °F 7.2 °F 65% 30.43 in 10.0 mi NE 10.4 mph - N/A   Overcast
5:58 PM 17.6 °F 5.7 °F 8.2 °F 67% 30.40 in 10.0 mi NNE 10.4 mph - N/A   Overcast
6:53 PM 17.6 °F 6.4 °F 8.6 °F 68% 30.31 in 10.0 mi NE 9.2 mph - N/A   Overcast
6:58 PM 18.0 °F 6.9 °F 9.3 °F 69% 30.39 in 10.0 mi NE 9.2 mph - N/A   Overcast
7:53 PM 17.6 °F 9.3 °F 8.6 °F 68% 30.30 in 10.0 mi NE 5.8 mph - N/A   Overcast
7:58 PM 18.3 °F 10.2 °F 9.3 °F 68% 30.38 in 10.0 mi NE 5.8 mph - N/A   Overcast
8:33 PM 17.6 °F 12.3 °F 10.4 °F 73% 30.29 in 10.0 mi NE 3.5 mph - N/A   Overcast
8:58 PM 18.7 °F 13.5 °F 9.5 °F 67% 30.36 in 10.0 mi NE 3.5 mph - N/A   Overcast
9:58 PM 18.9 °F 12.1 °F 10.6 °F 70% 30.34 in 10.0 mi ESE 4.6 mph - N/A   Overcast
10:58 PM 18.7 °F 9.5 °F 11.7 °F 74% 30.32 in 10.0 mi South 6.9 mph - N/A   Overcast
11:58 PM 18.5 °F 13.3 °F 11.5 °F 74% 30.31 in 10.0 mi SSE 3.5 mph - N/A   Overcast